Wind_Speed
11 8 8 9 10 12 14 13 15 13 5 7 9 5 8 8 7 7 5 5 3 5 7 8 11 11 12 12 12 13 12 11 13 15 16 15 16 18 18 16 14 13 15 17 16 18 20 18 18 18 18 20 22 25 25 20 20 20 20 20 21 21 22 21 21 21 21 21 22 21 20 19 17 16 17 17 15 13 14 14 12 12 12 11 11 10
10 9 9 12 13 13 12 13 15 12 4 6 9 6 7 8 8 6 6 5 3 5 8 9 11 12 12 12 11 14 11 11 13 15 17 19 19 20 20 19 16 13 14 18 17 17 20 19 20 20 19 21 24 24 23 21 21 22 21 20 22 23 24 24 24 23 23 23 23 21 18 16 15 16 17 16 15 13 13 14 13 13 12 11 11 11
8 9 12 13 12 11 8 8 11 9 6 8 8 8 8 8 9 5 7 5 5 4 7 9 10 10 10 11 12 15 13 11 15 16 17 20 21 20 21 19 17 13 14 21 22 20 21 22 23 22 20 22 23 24 22 21 20 21 20 20 22 23 24 26 25 24 24 23 22 20 18 15 13 16 16 15 15 12 13 15 14 13 13 12 11 10
7 9 14 15 10 8 7 6 7 7 7 8 8 8 9 9 11 6 5 6 6 5 8 9 9 8 8 10 12 16 18 15 15 18 18 20 22 21 22 20 18 17 18 24 25 23 23 25 25 23 21 20 20 21 21 20 19 19 19 20 21 22 24 25 25 24 24 23 21 20 19 17 16 16 16 15 14 12 13 15 14 12 13 12 9 8
10 6 9 13 9 8 9 9 9 7 7 9 11 11 9 11 13 7 5 5 5 7 10 10 9 8 10 12 13 14 17 17 15 17 17 17 21 21 23 22 17 20 22 21 23 25 25 26 27 23 20 18 18 18 18 18 19 18 17 18 20 21 23 24 23 23 24 23 21 20 20 18 17 16 15 15 15 13 14 14 12 11 11 9 7 7
13 4 4 8 8 9 11 10 11 9 7 9 11 14 13 13 13 7 7 7 6 8 10 12 10 7 11 15 15 13 14 16 14 15 16 17 19 21 23 23 19 19 20 18 19 24 25 25 25 22 18 17 17 18 19 18 18 18 16 16 17 17 20 22 22 22 23 22 20 19 20 19 17 15 14 14 15 14 14 12 11 9 8 8 7 7
10 7 7 8 8 10 12 9 11 11 8 8 9 13 15 14 13 10 11 10 7 8 4 7 8 7 8 11 11 11 12 13 12 13 15 17 18 19 22 23 22 18 19 18 16 21 25 21 21 22 20 18 21 26 26 22 19 17 15 15 15 15 17 18 20 22 20 18 17 17 19 17 16 16 15 15 14 13 12 11 10 8 8 9 8 8
9 8 7 10 11 10 11 9 11 12 8 8 5 6 10 11 12 12 12 10 8 9 4 6 9 9 8 8 8 10 10 10 13 14 13 14 15 17 20 21 24 21 21 20 16 20 25 23 23 27 27 27 29 30 28 24 21 17 15 16 15 15 14 14 17 19 17 16 16 17 17 15 14 15 15 14 14 12 11 10 9 8 9 9 8 8
9 11 8 10 11 9 9 9 11 12 10 9 3 2 7 9 11 11 10 9 9 10 8 8 11 8 7 10 9 10 11 11 12 9 8 7 8 11 15 17 22 19 21 21 19 22 28 29 31 33 33 31 30 28 25 22 19 16 17 18 16 15 14 12 14 17 18 17 15 15 15 15 15 15 15 14 13 12 11 9 8 8 9 9 9 9
8 12 11 10 10 8 9 9 9 10 10 9 4 4 7 8 9 10 9 9 9 10 10 10 10 8 7 8 7 7 9 9 6 6 5 3 4 9 14 17 20 13 21 20 19 21 25 29 32 33 30 26 25 24 21 19 18 17 18 17 15 16 17 16 15 15 17 16 14 15 16 17 18 16 15 14 12 12 13 11 10 10 10 11 11 10
5 6 6 8 9 9 9 9 8 9 10 7 4 6 8 8 9 9 8 8 9 9 10 13 14 11 8 5 2 1 1 0 3 5 2 2 4 9 11 16 20 11 17 19 19 19 21 21 23 26 25 22 21 18 16 19 17 11 9 8 10 15 17 17 17 16 17 19 18 19 19 19 19 18 16 15 13 13 14 13 12 11 11 11 12 12
9 8 5 8 12 11 10 11 11 12 11 8 5 7 8 8 8 7 7 8 8 9 9 13 16 13 9 3 3 3 4 3 2 2 0 3 5 6 6 12 14 8 13 17 18 19 19 17 15 18 20 20 18 16 15 15 11 8 7 7 10 15 18 18 17 16 17 20 20 20 21 19 19 17 16 16 16 15 14 13 12 12 12 11 11 12
11 10 9 10 13 14 11 9 10 10 10 9 8 8 8 7 7 7 7 8 8 9 10 11 10 10 7 1 5 3 3 4 3 3 2 2 3 3 4 8 7 6 9 12 15 15 17 17 15 15 18 19 15 16 16 10 8 11 14 13 11 13 17 16 15 18 19 21 21 21 20 19 18 16 14 15 17 16 14 14 13 12 11 11 11 11
9 10 12 12 11 14 13 9 8 9 9 11 9 8 8 7 7 7 7 8 8 9 11 8 5 7 5 2 5 4 3 5 3 4 4 3 1 1 4 6 6 8 9 10 11 13 15 16 14 14 16 17 16 18 15 7 7 12 12 13 13 13 15 14 15 20 22 22 22 22 20 19 18 16 16 16 17 16 15 15 13 12 11 11 11 11
10 9 12 12 9 13 15 12 10 8 10 12 10 9 9 7 7 7 6 6 6 6 8 9 6 6 5 2 5 5 4 4 4 5 4 4 1 1 3 4 6 8 10 10 10 10 11 12 12 13 12 13 14 13 10 9 12 13 11 13 15 14 15 15 16 23 25 24 24 22 21 20 19 18 18 17 16 16 16 15 14 12 11 11 10 11
12 9 10 13 12 14 15 15 14 10 8 10 10 10 9 8 7 6 5 4 2 4 5 7 6 2 3 4 5 4 4 4 5 5 4 3 3 2 2 3 4 6 7 8 8 6 7 9 10 11 10 10 11 10 8 11 16 15 13 14 15 15 15 17 21 27 28 26 24 22 22 22 21 21 19 16 15 16 15 14 13 12 11 10 11 11
10 8 9 14 14 14 14 15 14 12 7 6 9 11 9 9 9 6 7 5 2 5 6 6 6 4 6 5 5 5 5 5 5 4 5 4 4 4 4 4 2 3 3 2 4 4 5 7 8 9 9 10 11 11 10 11 15 16 14 14 15 15 16 20 25 28 27 25 24 24 24 24 24 21 18 16 17 16 15 14 13 12 11 10 11 11
7 6 7 12 13 13 13 15 15 15 11 5 6 8 8 10 9 6 6 6 5 8 7 7 10 5 5 3 3 5 5 5 4 4 5 4 5 6 7 9 7 7 6 4 2 2 3 5 6 7 8 10 12 12 10 11 13 14 13 15 16 16 18 23 26 26 25 25 25 25 26 27 24 21 18 18 18 17 16 14 13 12 12 12 12 11
6 6 6 11 12 12 13 12 12 15 17 12 6 5 6 8 8 6 6 6 7 7 6 9 11 4 2 2 4 4 4 4 3 3 4 4 6 6 8 9 8 8 9 7 5 3 1 3 5 7 8 8 9 10 10 10 11 13 13 16 18 18 18 24 27 25 25 26 26 26 27 27 24 21 20 19 18 18 17 14 13 13 13 13 13 12
5 6 6 9 11 10 10 9 9 10 15 15 10 7 6 6 6 6 6 6 8 7 6 9 9 1 4 3 4 4 4 4 4 4 4 5 7 7 8 8 7 7 7 7 7 7 5 5 4 5 5 5 6 8 9 9 10 13 14 15 19 19 19 23 26 25 26 27 27 27 28 26 23 21 20 19 18 18 17 15 13 13 13 13 12 12
5 6 5 7 9 9 8 8 10 10 11 12 10 9 7 7 6 5 4 5 7 6 5 7 5 2 3 2 3 5 5 3 4 5 5 6 9 9 10 11 10 9 9 9 9 9 8 6 4 2 3 4 6 8 9 9 10 12 13 14 17 19 20 22 25 25 27 28 28 28 28 26 24 22 20 19 19 18 17 15 14 13 13 12 12 13
5 6 7 6 7 9 9 11 14 13 11 10 10 10 10 8 7 7 7 6 6 6 6 6 2 4 2 1 4 6 6 4 4 7 7 9 10 10 11 12 11 11 11 11 11 10 9 7 6 4 3 3 6 8 8 8 9 11 13 14 16 19 21 23 25 26 27 28 29 28 26 25 24 21 20 19 19 19 16 15 14 12 12 12 12 12
6 5 8 8 7 8 8 9 10 8 8 10 10 10 11 9 8 8 6 4 6 6 7 8 4 5 2 2 5 7 8 9 9 9 9 10 12 11 11 12 11 12 12 12 11 10 8 7 7 4 2 3 4 6 7 7 9 10 10 12 16 18 20 23 25 27 27 28 28 27 25 24 22 21 20 20 20 20 17 15 14 12 11 12 11 11
7 5 8 8 8 8 5 5 6 7 8 10 8 8 9 10 9 8 4 2 4 4 6 7 3 4 1 2 7 8 10 12 14 13 11 11 12 12 12 11 11 12 12 11 10 9 7 6 7 6 3 2 2 2 3 6 8 9 8 11 15 17 20 23 25 26 27 27 28 27 26 24 22 21 20 20 20 20 18 16 15 13 12 12 11 11
5 6 8 7 7 8 6 6 8 9 9 9 8 10 12 11 10 8 5 4 5 4 5 7 1 4 4 4 7 7 9 12 13 14 13 12 12 11 10 10 11 11 11 10 9 9 8 5 5 6 5 3 2 0 3 5 6 6 7 11 14 17 20 22 22 22 25 27 27 27 27 26 23 21 20 19 19 19 18 16 15 14 14 13 12 11
6 6 7 7 8 8 6 5 5 5 7 8 11 11 10 10 11 9 6 7 6 6 8 8 0 6 5 5 6 6 8 11 11 12 12 12 11 10 10 10 10 10 10 10 10 10 9 7 6 6 5 4 3 3 4 5 6 6 6 9 12 14 18 19 20 20 22 25 25 24 25 25 23 21 20 19 18 18 18 16 14 14 13 12 12 11
5 4 5 8 8 4 3 4 6 7 6 8 13 12 6 7 10 9 8 7 5 3 5 4 5 8 6 6 6 6 8 9 9 10 11 11 11 10 10 11 11 11 11 9 9 7 6 5 5 6 4 3 3 4 3 4 7 7 5 7 11 13 15 18 19 19 21 23 23 22 22 22 22 20 20 19 19 18 17 16 14 14 13 12 12 12
4 6 8 10 10 6 4 4 7 9 7 8 11 9 6 6 9 10 9 5 4 3 2 1 7 10 7 7 7 7 8 8 8 9 10 10 10 10 10 11 12 12 11 9 8 7 5 3 3 5 4 3 1 2 3 4 6 8 6 6 10 12 14 16 16 16 18 18 18 21 21 20 20 20 18 18 19 17 16 15 14 13 12 12 12 12
4 6 5 7 9 6 3 1 5 7 5 5 5 3 4 4 7 8 6 3 4 4 3 5 9 10 7 7 8 7 8 9 9 9 9 9 10 10 11 12 13 12 11 10 9 8 7 5 3 4 5 3 2 1 1 3 4 7 7 7 9 12 14 15 12 11 15 14 14 18 20 18 19 19 17 16 17 17 16 15 14 13 12 11 12 12
3 3 1 4 7 2 4 2 4 3 5 3 3 2 2 2 2 2 3 3 2 3 6 11 13 11 7 6 7 8 9 10 9 9 10 10 11 12 12 13 12 12 11 11 10 9 7 6 4 4 3 4 4 3 3 2 2 5 8 8 9 10 13 15 13 12 15 15 15 16 19 20 21 21 18 16 15 16 16 14 14 14 13 12 12 12
3 3 5 6 7 2 4 5 2 2 7 3 8 9 6 4 5 6 6 5 5 7 10 12 11 8 5 6 8 8 9 10 10 10 11 11 11 12 12 12 12 12 11 10 10 9 8 7 7 6 5 6 7 6 5 5 5 6 6 6 6 7 9 11 13 12 13 14 15 16 19 21 21 22 21 18 16 16 16 15 14 14 13 13 12 12
4 4 3 6 9 5 5 7 5 5 7 3 9 11 9 5 4 6 7 7 5 3 8 8 5 5 5 7 9 9 10 11 11 11 11 12 12 11 12 11 11 11 10 9 9 8 8 9 11 10 8 6 6 7 7 7 7 9 8 6 6 7 8 9 11 13 12 12 14 16 17 17 19 21 21 19 20 20 18 17 16 15 14 13 12 12
2 5 4 4 7 5 4 6 6 6 5 2 5 9 9 7 4 4 7 9 8 3 3 3 4 7 9 8 8 8 9 11 12 11 10 10 11 11 11 11 10 10 9 9 8 8 10 12 13 13 11 8 6 6 8 8 8 10 11 10 10 9 9 10 11 11 10 9 11 15 15 14 18 22 22 21 22 22 22 21 20 17 16 15 15 13
1 4 4 2 3 2 1 3 6 6 5 1 3 6 7 7 6 4 7 9 9 6 6 7 8 9 9 7 8 9 10 12 12 12 11 10 10 11 11 11 10 10 10 10 10 11 12 15 16 16 15 13 11 9 9 10 10 10 11 11 12 13 16 17 17 14 13 10 10 12 14 15 18 21 21 20 19 17 18 19 20 19 16 16 15 13
4 4 2 0 1 1 2 4 7 5 2 3 5 6 5 6 7 7 8 9 8 8 9 10 11 10 10 11 12 13 14 15 16 15 13 11 10 11 12 12 11 12 13 13 13 13 14 15 17 19 19 18 16 14 13 13 13 13 13 13 13 17 20 22 22 21 21 19 16 13 11 13 18 20 19 18 17 16 16 17 19 20 18 17 15 10
3 3 2 0 2 3 4 5 4 2 3 5 5 7 6 4 4 5 6 8 8 6 7 9 10 10 12 14 13 14 16 17 18 19 16 13 12 11 12 13 12 14 17 18 17 16 16 16 17 19 19 19 18 19 20 18 18 20 22 19 18 18 19 19 20 20 20 20 20 18 14 13 15 15 15 16 18 18 16 16 17 17 17 17 15 13
1 1 2 2 4 4 3 2 2 4 4 4 4 6 6 4 5 4 2 5 7 4 4 8 10 11 13 13 13 14 14 13 15 16 16 15 15 13 13 13 13 15 19 21 20 19 18 18 19 19 18 18 19 21 22 19 19 23 25 24 24 23 23 22 22 20 19 19 19 19 17 15 14 14 14 15 16 15 13 13 13 12 12 14 14 14
4 2 1 1 4 4 4 5 4 5 3 5 5 4 5 5 4 4 1 3 5 4 4 7 9 11 12 13 13 12 9 7 7 8 10 13 14 14 13 13 14 16 18 19 20 20 20 20 21 21 19 18 20 22 22 20 20 23 26 25 26 26 26 26 25 23 22 20 18 17 17 15 14 14 15 14 14 14 14 14 12 11 10 10 10 10
3 2 2 2 4 4 3 4 3 3 4 5 6 5 5 4 3 3 3 2 3 3 5 7 8 10 11 12 12 7 3 1 3 5 7 9 11 13 13 15 16 17 17 17 18 19 20 20 20 22 22 21 20 21 22 22 23 25 26 26 26 26 27 27 26 24 23 21 19 18 17 16 15 14 14 14 14 14 13 13 12 10 10 8 8 10
1 2 4 5 5 2 3 2 3 4 5 6 9 8 6 4 2 3 2 3 3 3 6 7 8 11 12 10 6 2 4 1 7 8 8 9 10 12 14 16 18 17 17 17 17 17 17 17 18 21 23 22 20 18 19 22 24 26 26 26 27 27 26 25 24 23 22 20 20 19 19 19 18 16 15 14 14 13 12 12 12 10 8 6 5 6
1 2 2 2 1 4 6 5 4 4 4 9 13 11 8 5 3 1 2 2 2 3 6 7 9 11 9 6 6 7 9 11 14 12 9 9 10 11 13 14 15 15 15 16 15 16 16 15 16 18 19 20 18 17 18 19 21 23 25 25 26 25 24 22 21 21 21 20 20 20 20 20 20 18 16 15 14 14 13 13 12 11 9 8 7 4
2 3 1 2 2 1 4 6 5 5 6 15 18 13 9 5 1 2 6 2 4 6 6 9 11 10 8 10 12 13 14 16 16 12 9 9 10 10 11 11 12 12 12 12 13 13 14 14 15 15 16 16 16 15 16 17 17 18 20 22 23 21 20 19 18 18 18 17 17 17 17 17 17 16 16 15 14 13 13 12 12 10 7 7 7 6
4 3 2 5 4 2 4 6 4 3 7 18 17 8 8 7 2 5 8 2 8 9 8 10 10 9 11 13 15 16 16 16 14 12 11 11 11 11 10 11 12 12 11 11 12 11 11 12 13 14 14 14 14 14 13 14 15 15 15 17 18 17 16 16 15 14 14 14 14 14 13 13 12 12 12 12 12 10 10 9 9 8 7 6 5 5
5 4 2 4 5 4 4 5 4 2 8 15 12 5 6 8 5 6 4 6 11 10 10 12 11 11 15 18 18 17 16 15 14 12 11 11 10 11 10 10 11 11 11 12 12 12 11 11 11 11 11 11 13 13 13 13 13 13 13 14 14 13 12 13 12 12 11 10 10 11 10 9 9 9 8 8 9 8 8 8 7 7 7 6 5 4
7 8 9 8 7 7 7 5 4 5 7 11 11 8 8 9 8 7 10 12 12 11 12 13 14 15 16 18 19 18 16 15 15 13 11 11 11 11 11 11 11 11 11 11 12 12 12 12 12 11 11 12 13 13 14 14 13 13 14 14 13 12 11 11 10 10 9 9 8 9 8 7 7 7 6 6 6 6 6 7 6 5 5 5 4 3
8 10 11 9 9 11 12 11 9 9 10 11 11 10 10 11 12 14 17 16 15 16 16 16 17 17 17 17 19 18 16 15 14 12 12 12 12 12 11 10 10 11 12 12 11 12 12 13 13 13 13 14 14 13 13 13 14 15 16 15 14 13 13 12 11 11 10 10 9 8 8 8 7 6 5 5 5 5 5 5 5 4 4 4 3 3
8 10 10 8 7 7 8 11 13 14 13 12 11 11 12 13 14 16 19 19 20 22 21 19 18 18 17 18 18 17 15 14 13 12 12 12 11 10 9 9 10 11 11 11 11 11 11 12 12 13 13 14 14 13 13 14 14 15 15 15 15 14 13 12 12 12 11 11 10 9 8 7 7 6 5 4 3 2 2 3 3 4 5 4 3 3
8 10 10 10 10 8 8 12 18 21 20 16 13 12 12 13 15 16 16 18 20 24 24 21 19 18 17 17 16 16 14 12 11 11 10 9 8 7 6 6 7 8 8 9 10 10 10 10 11 13 14 15 15 15 14 15 15 14 14 14 14 13 13 13 12 11 11 10 9 9 8 7 7 6 5 4 3 2 1 0 0 2 4 5 4 5
6 8 9 11 11 9 10 12 14 17 20 20 18 15 13 14 16 16 16 17 19 22 24 22 20 18 16 15 14 14 13 11 10 9 8 8 7 7 6 6 6 6 7 7 7 8 8 9 10 11 12 13 13 13 13 14 14 14 13 13 13 13 14 14 13 12 11 10 10 10 10 9 8 8 8 7 6 5 4 2 1 1 2 2 3 4
7 7 7 9 9 7 7 8 8 10 12 15 18 18 17 18 19 20 21 22 21 21 22 21 20 18 16 15 13 12 11 10 9 8 8 7 7 6 6 6 5 6 6 6 6 6 7 7 7 8 9 9 10 10 11 12 13 13 13 14 14 13 14 14 13 13 11 10 10 11 11 10 9 9 10 9 8 7 6 6 4 3 2 2 1 1
10 7 6 8 9 9 11 12 13 14 14 15 17 18 17 18 20 20 21 22 21 20 20 20 20 18 16 16 14 12 10 9 7 7 7 6 6 5 5 4 4 4 5 5 5 5 5 6 6 7 7 8 8 9 9 10 11 12 12 13 13 13 13 13 12 12 12 11 9 10 10 10 9 10 9 8 7 7 6 7 7 6 4 3 2 1
Wind_Direction
197 209 212 215 223 214 217 224 237 256 302 301 284 254 242 249 237 223 176 142 179 251 246 244 252 253 252 247 248 242 203 198 225 211 208 218 221 224 218 211 200 186 199 206 205 202 196 192 188 189 197 201 201 202 201 194 190 189 188 191 195 200 204 205 209 211 213 213 210 210 209 210 213 207 206 208 205 206 200 189 190 199 196 196 200 199
200 221 224 218 228 227 222 225 238 264 296 259 266 264 243 246 250 222 160 166 195 238 253 251 250 249 249 248 250 250 221 194 222 220 210 219 224 225 223 214 198 185 189 201 206 199 194 193 189 190 193 196 198 200 199 195 194 193 188 189 195 200 203 205 210 212 213 212 210 209 205 206 210 204 204 208 205 203 203 193 191 199 195 199 206 202
207 229 234 226 230 232 236 239 234 244 253 243 248 257 251 239 242 210 146 183 215 232 254 253 256 254 246 244 242 248 241 212 220 228 215 217 226 226 227 217 188 181 187 186 196 200 195 195 195 193 194 196 199 201 201 199 200 200 193 190 195 200 201 202 204 206 207 205 205 206 202 198 201 202 200 204 203 194 200 200 193 194 191 196 207 205
214 224 227 228 225 218 225 236 234 227 231 242 242 243 246 239 243 229 172 197 208 233 266 271 270 265 257 253 245 243 244 231 220 228 223 217 224 227 234 225 182 182 200 186 188 198 195 196 196 194 195 195 197 199 200 201 203 203 201 197 198 201 198 195 195 198 201 200 203 205 200 194 194 199 197 198 196 185 198 204 194 196 195 194 200 199
241 230 212 219 204 195 215 214 220 230 226 228 236 245 247 243 247 239 210 217 216 233 248 260 269 260 246 244 242 238 236 234 222 224 227 220 222 224 234 237 202 187 199 192 188 196 198 197 196 194 192 192 196 200 199 202 206 206 207 206 206 204 199 196 193 194 198 201 204 200 197 197 196 199 196 194 191 186 200 206 198 200 196 191 191 188
247 221 155 214 193 192 223 217 212 224 236 224 219 234 247 257 264 260 254 258 253 250 234 228 247 253 239 238 235 229 224 222 222 226 227 223 225 225 227 235 227 201 192 190 189 198 205 199 192 191 189 193 199 204 205 207 209 208 210 213 211 206 204 203 197 194 199 202 202 199 199 198 195 197 194 193 192 192 203 204 194 196 188 183 185 181
240 186 156 219 214 209 227 223 212 212 234 243 217 221 232 249 267 265 261 259 252 273 251 202 246 270 255 247 231 231 228 206 212 230 228 225 226 228 228 230 232 211 181 182 188 198 209 203 190 188 190 199 208 214 217 216 212 210 213 212 207 205 201 199 198 198 201 200 200 206 207 198 190 194 190 190 195 195 204 201 186 185 179 177 181 179
230 203 181 218 221 222 227 220 211 206 224 243 223 221 227 234 250 248 248 252 253 269 249 186 238 267 269 261 228 225 233 213 218 223 217 229 229 230 234 229 233 220 181 179 195 203 208 204 196 197 203 213 216 219 221 218 214 210 208 207 209 210 196 185 193 198 202 206 207 210 211 198 189 195 190 189 193 191 198 195 179 177 175 176 181 180
200 216 209 212 219 223 223 220 210 205 225 239 208 216 245 246 249 246 243 245 248 257 251 219 230 252 262 263 243 217 217 220 224 201 188 234 251 256 255 243 241 220 174 175 192 200 202 198 199 204 208 214 217 218 220 219 215 211 214 215 216 221 215 204 197 194 203 216 219 214 209 197 190 196 194 188 188 188 189 184 178 176 173 177 179 179
183 214 215 207 219 224 217 222 212 200 222 247 248 224 243 255 250 247 247 247 245 245 253 248 241 250 255 258 255 227 217 221 204 159 173 232 267 271 269 265 257 204 160 175 193 197 199 198 205 208 207 212 215 215 219 216 205 202 208 209 210 220 225 214 195 187 192 196 204 205 198 192 189 191 193 187 183 185 183 180 184 179 171 178 180 180
176 178 217 221 226 230 221 221 213 201 216 246 270 235 230 237 237 241 244 250 253 241 241 248 248 253 257 263 310 248 206 226 139 149 197 275 259 252 244 251 256 212 163 179 195 201 200 198 207 209 205 208 209 209 212 206 195 177 155 163 208 219 213 198 186 185 180 176 189 197 193 192 188 185 188 187 185 186 184 184 187 177 169 177 182 185
208 170 205 227 227 233 231 225 215 206 214 228 236 234 231 223 221 230 231 233 247 247 241 245 245 245 246 246 71 88 90 64 57 114 43 287 257 250 232 234 242 207 164 177 188 194 192 190 199 203 201 203 209 212 204 196 187 168 166 195 222 211 200 195 191 193 188 181 190 195 191 189 185 184 187 189 189 187 187 187 181 172 169 173 179 184
221 207 208 205 211 224 227 221 211 202 212 224 221 227 233 222 214 224 228 223 232 244 247 252 250 240 241 123 105 121 97 84 47 55 55 324 272 240 238 234 217 169 169 183 185 185 184 188 194 198 197 194 196 188 168 141 131 168 196 207 201 197 203 204 200 199 192 182 185 188 184 182 184 185 185 192 191 184 186 186 174 171 170 171 178 178
219 214 207 198 194 209 220 219 204 195 205 216 214 218 227 222 218 223 230 230 229 236 239 244 249 236 239 89 115 137 101 99 83 73 75 42 2 229 222 220 185 167 183 188 185 188 189 192 196 199 196 188 185 180 167 154 161 170 183 188 183 188 192 186 190 194 185 176 180 182 178 179 185 184 184 195 193 184 187 184 173 173 171 171 177 172
225 215 200 202 187 186 207 224 221 206 203 212 217 224 231 230 230 233 238 239 242 251 233 214 226 247 241 103 92 90 89 104 99 92 89 80 81 234 212 201 187 176 187 196 199 200 195 196 201 200 192 183 189 198 198 199 192 181 180 184 185 187 181 173 181 186 181 178 178 176 175 178 181 180 182 191 190 186 187 181 172 172 172 173 172 169
235 232 192 202 204 189 198 221 234 232 212 205 213 225 232 233 234 247 271 281 281 278 245 213 224 247 143 129 104 94 93 92 90 97 98 100 121 159 172 181 185 168 176 199 199 189 183 188 191 186 180 172 179 193 187 180 187 188 183 182 187 191 183 176 177 180 180 180 177 172 173 175 176 175 175 178 181 184 183 176 172 172 172 172 167 168
231 236 187 193 209 205 201 211 224 237 236 202 207 222 228 232 237 248 256 255 237 254 256 241 234 162 142 162 138 116 98 80 79 93 97 104 119 124 110 97 101 117 116 171 175 156 161 172 178 182 181 175 175 182 183 181 187 188 182 180 185 188 180 175 175 176 177 179 176 172 171 171 173 171 167 171 177 180 178 172 170 171 171 168 165 170
228 247 198 189 205 208 210 216 215 224 239 233 217 222 219 225 236 252 251 232 219 240 247 245 242 208 167 191 136 112 94 81 78 88 94 98 106 103 83 68 54 49 47 46 95 141 170 175 181 179 173 172 172 173 182 189 185 183 182 179 180 183 180 176 174 172 176 178 176 173 171 171 170 165 166 175 177 175 171 167 168 170 168 167 168 170
228 251 209 197 212 203 201 221 218 212 223 233 247 246 232 232 226 219 234 238 233 240 244 243 242 235 82 109 125 130 131 120 112 111 111 104 103 101 86 69 53 50 44 36 46 60 136 159 161 160 159 170 175 170 176 186 181 178 178 173 175 183 181 176 174 172 176 177 175 174 172 170 165 162 168 174 173 170 165 162 169 171 165 168 171 168
220 249 214 199 217 201 185 211 222 204 208 223 241 242 240 253 242 222 223 232 239 236 236 242 235 169 48 64 111 119 119 130 143 131 117 99 92 91 93 84 66 63 53 37 40 45 66 105 129 155 157 164 178 173 173 182 178 175 177 171 172 179 177 175 176 175 174 173 173 175 173 168 163 164 169 169 167 166 162 162 171 170 165 167 169 166
202 236 230 205 208 199 184 203 217 211 197 205 225 228 223 233 238 243 240 241 259 257 247 253 238 121 65 74 130 128 111 118 144 128 106 90 80 71 76 76 63 57 50 42 40 38 48 66 68 89 135 157 172 167 171 187 183 177 180 177 174 176 174 173 173 176 175 172 173 175 173 168 165 166 168 168 167 163 159 166 171 169 166 164 165 165
200 220 231 222 209 207 209 208 213 222 215 204 211 216 221 230 230 233 229 221 238 249 250 252 203 108 69 66 115 122 109 99 110 112 102 88 80 71 68 67 61 56 48 39 31 26 29 35 42 66 112 144 161 161 168 188 192 189 189 184 177 175 176 176 172 174 177 172 173 176 171 166 167 167 167 170 169 163 161 169 169 168 170 165 165 166
209 232 230 218 218 225 222 209 210 230 239 228 226 222 222 226 228 237 245 228 227 249 264 249 174 108 23 32 84 90 82 68 60 75 90 81 69 64 60 56 53 49 43 36 27 20 18 18 24 44 123 150 161 164 169 184 190 193 196 191 182 174 175 177 172 174 178 174 174 176 170 166 168 167 168 171 169 164 165 169 167 171 174 168 167 167
190 228 237 222 228 234 210 189 211 227 236 237 236 233 231 229 231 238 246 249 249 269 287 266 204 126 134 80 87 89 82 70 58 54 61 62 55 49 45 43 41 38 34 29 26 21 14 19 35 46 83 139 141 144 183 196 182 178 193 195 184 174 173 176 175 177 180 176 174 175 170 168 170 170 169 171 168 165 167 168 167 172 174 169 170 169
196 213 227 222 225 226 209 202 211 210 217 231 232 230 236 240 243 237 213 226 245 223 241 267 278 106 131 118 105 108 93 76 65 56 50 50 48 42 38 38 38 37 31 26 29 33 32 34 43 41 40 41 36 334 235 212 170 154 182 190 182 176 174 177 178 178 179 179 177 176 173 170 169 170 169 169 169 167 166 167 169 172 171 167 167 168
240 219 224 235 226 218 224 231 229 222 217 223 225 226 238 246 249 250 228 237 254 229 241 265 43 98 105 112 119 122 100 82 73 69 60 52 48 43 41 41 38 37 34 32 36 45 53 54 38 25 24 18 343 284 249 216 182 154 165 183 182 178 174 175 178 178 179 181 177 174 175 174 170 168 166 168 170 168 165 166 168 168 165 163 166 168
255 247 248 262 261 249 265 287 302 299 273 242 225 210 214 254 265 274 253 245 267 251 265 292 131 137 141 129 120 96 86 82 74 72 67 58 51 44 43 40 38 36 34 33 37 45 67 75 43 32 41 31 324 293 282 237 205 178 173 186 177 172 173 172 175 179 180 181 179 175 174 171 166 164 165 167 168 168 165 162 161 161 160 162 166 165
257 250 231 242 264 270 267 305 322 314 304 281 251 207 182 227 247 252 244 251 289 253 258 36 126 140 135 110 95 75 72 73 66 64 65 63 56 50 47 43 40 39 35 34 39 43 57 69 40 35 47 55 356 311 308 271 223 196 197 192 170 166 170 169 172 179 178 179 182 180 175 167 159 156 161 166 164 163 162 158 154 154 157 162 163 161
255 256 236 239 256 262 259 351 5 333 300 270 257 199 168 212 227 232 235 271 295 259 208 160 140 127 107 87 75 68 71 70 64 60 61 65 62 56 52 47 43 40 36 33 34 37 44 50 47 41 41 50 70 73 325 290 241 215 212 198 174 165 162 165 169 166 165 174 186 185 181 175 166 161 161 162 162 162 161 155 150 150 153 156 155 156
280 243 181 239 242 282 329 345 66 343 273 189 104 66 92 92 67 44 39 43 32 67 117 136 125 101 88 90 78 69 73 74 68 62 58 58 58 56 53 48 44 39 35 34 33 37 48 58 65 68 71 92 109 133 176 167 151 193 209 203 188 172 160 162 159 144 149 166 179 182 177 173 173 174 167 158 162 167 160 151 149 149 149 151 151 153
315 201 172 224 232 213 304 282 126 239 246 162 64 32 31 57 57 48 43 46 67 93 113 123 115 94 86 98 95 86 79 75 67 58 53 49 50 55 54 49 43 37 33 33 35 44 58 66 70 79 99 121 128 140 170 172 136 141 174 187 177 168 159 160 163 163 166 170 171 173 173 172 176 177 168 159 161 165 160 153 150 148 147 148 150 150
299 255 219 246 248 225 231 246 231 235 234 131 61 26 11 16 44 58 52 30 24 105 136 134 123 121 124 114 105 94 81 74 64 54 52 49 48 53 55 50 44 38 36 36 41 56 69 70 72 76 85 109 130 136 151 168 152 136 136 131 123 128 132 143 166 181 183 175 170 170 171 175 180 179 173 169 168 167 163 156 148 145 145 145 145 145
285 274 266 257 255 241 210 222 227 239 241 152 63 23 9 6 18 70 65 36 15 13 150 137 99 115 129 129 114 97 81 72 62 52 51 52 50 53 55 53 46 40 39 41 50 71 83 80 78 77 79 88 101 117 131 138 135 133 133 130 126 126 125 127 141 160 168 170 172 174 176 181 184 184 181 177 175 170 164 158 153 151 151 148 146 143
157 259 274 295 268 260 144 189 209 219 228 196 45 16 13 14 14 56 69 44 33 44 66 84 99 114 126 122 106 96 83 74 68 60 56 55 55 57 58 57 54 50 50 55 67 83 90 91 91 87 82 82 86 102 124 123 115 117 125 133 138 135 130 125 124 128 133 135 147 166 177 181 183 185 181 177 178 174 167 165 163 160 161 161 156 151
165 205 236 350 263 217 145 193 209 211 198 92 56 21 16 26 37 71 80 53 49 71 82 95 108 110 106 102 98 95 89 82 74 64 58 59 61 62 62 60 58 59 62 66 74 85 92 97 99 94 89 87 87 92 105 111 110 109 111 121 133 134 131 131 130 126 123 122 122 130 149 168 178 183 182 180 184 186 183 182 175 168 168 173 175 180
196 193 143 138 236 193 183 204 203 156 85 76 56 24 17 19 29 66 87 59 42 56 89 106 113 107 106 110 108 105 101 89 73 60 56 61 64 65 68 66 63 66 71 74 78 83 90 96 96 95 96 98 97 91 88 91 100 103 102 102 111 120 124 125 126 127 128 128 126 124 130 147 163 172 175 177 184 189 188 188 186 180 179 189 202 217
132 173 116 165 212 193 158 127 129 141 110 64 31 9 3 350 352 5 78 68 39 25 87 116 122 118 119 122 121 124 119 95 70 57 55 62 66 67 71 72 71 74 77 79 80 81 88 96 96 96 100 104 105 98 87 81 91 102 101 95 96 103 107 105 104 109 120 125 126 128 133 137 144 155 162 169 179 186 187 190 195 196 196 205 216 224
117 160 119 164 221 207 153 132 148 168 123 52 26 4 346 324 322 321 292 80 49 33 91 126 132 127 128 132 134 145 144 99 65 55 58 65 69 68 69 71 76 81 85 87 86 84 87 92 95 99 102 102 104 104 97 90 94 103 105 101 97 99 101 100 99 99 104 110 117 126 132 131 133 141 149 156 165 173 182 189 189 183 179 182 190 201
111 176 186 213 241 235 197 181 159 124 86 40 14 3 350 326 299 278 245 121 71 78 118 133 137 132 137 143 143 157 191 129 90 87 79 78 75 72 72 75 78 82 86 88 89 86 84 86 92 99 100 97 96 102 108 110 107 105 105 105 104 104 103 102 99 96 95 98 105 112 115 114 115 120 126 135 144 152 165 174 169 164 167 170 182 196
63 249 226 235 235 173 117 102 78 83 69 22 357 346 341 325 283 258 224 93 67 109 134 134 138 140 143 146 135 48 340 106 136 125 105 95 89 84 84 85 84 82 82 83 85 85 86 89 92 93 93 90 89 94 104 112 113 108 105 104 104 105 104 102 100 97 96 97 102 107 109 109 110 112 114 120 127 130 134 139 137 136 138 138 158 193
62 298 237 229 223 112 107 105 95 87 44 1 342 333 331 310 263 269 11 46 96 134 136 131 138 141 133 106 79 58 61 97 122 127 112 98 93 88 88 89 87 84 82 81 82 84 87 90 89 86 86 87 88 91 96 102 107 107 106 105 104 103 104 105 105 105 105 107 110 113 115 115 115 115 114 111 114 116 115 116 114 108 106 110 112 123
3 315 61 75 358 31 111 112 109 105 42 355 335 330 347 339 251 28 354 334 138 131 135 132 132 130 104 81 89 98 97 103 112 114 102 95 91 85 82 82 81 82 82 80 80 81 81 82 83 83 85 86 88 89 91 96 99 99 102 103 103 103 106 109 110 110 110 111 112 112 114 115 116 119 120 118 120 120 118 116 111 105 107 118 121 120
355 309 66 59 10 7 89 86 87 101 19 356 342 341 18 15 343 324 332 25 113 118 128 123 114 114 108 102 105 108 107 106 106 103 97 94 88 81 76 73 73 74 74 74 76 77 74 74 76 75 74 75 77 79 84 92 96 96 96 96 95 97 102 104 105 107 109 110 110 111 112 115 117 121 125 128 132 134 133 131 124 118 118 115 116 128
358 328 36 42 360 9 62 63 48 16 356 0 6 28 28 10 343 317 337 88 102 104 106 100 95 107 115 115 114 111 108 106 103 101 98 91 83 79 76 72 72 70 66 65 68 71 75 77 76 78 78 72 68 68 72 80 90 95 95 93 92 93 96 97 97 98 101 105 109 113 117 121 126 129 132 136 141 146 148 141 127 120 122 115 106 115
48 57 75 70 52 54 63 62 49 30 17 23 34 43 34 26 34 61 80 83 82 85 93 97 101 107 112 114 113 109 106 105 102 101 98 90 84 84 79 75 74 71 66 64 62 62 66 68 66 72 81 78 68 62 60 63 70 78 80 81 83 83 84 87 91 93 95 98 102 108 114 119 127 137 144 148 152 159 162 153 136 119 114 110 110 117
84 86 88 90 96 86 69 58 57 52 49 49 48 48 50 49 59 79 86 81 80 88 94 99 104 105 105 107 107 104 104 104 101 97 94 91 88 85 82 80 80 77 72 67 64 63 67 70 66 64 70 77 76 71 67 65 63 63 65 67 69 71 71 70 72 74 78 81 82 87 95 100 103 112 123 130 137 152 167 169 166 158 136 117 105 105
86 85 84 86 104 100 65 58 64 61 58 60 59 58 62 65 71 84 90 91 94 96 94 95 100 101 100 102 103 105 106 104 97 91 87 85 82 77 77 80 82 81 74 65 63 67 71 75 75 72 74 79 79 79 80 78 69 62 60 62 64 68 71 71 68 65 64 65 66 67 70 77 80 81 83 88 95 114 148 159 172 187 189 184 161 132
97 95 87 77 79 87 92 87 79 70 64 64 65 66 70 74 78 85 91 95 97 97 95 94 94 95 98 99 101 102 102 99 96 92 85 80 75 71 70 72 73 77 74 65 63 67 67 69 70 70 70 69 66 64 67 69 67 62 59 58 58 60 66 69 68 68 67 65 64 62 59 60 62 58 52 49 44 33 26 29 225 233 238 234 218 203
112 110 100 97 96 102 111 106 91 77 68 63 66 73 80 85 88 89 92 94 96 98 100 100 98 96 96 96 98 100 99 95 90 87 83 80 77 73 71 73 74 76 76 73 72 73 72 70 69 67 66 63 59 56 54 54 55 53 51 52 54 56 58 58 56 55 58 61 65 63 55 51 51 50 47 41 30 24 27 21 349 308 290 270 245 237
94 114 115 112 107 106 111 105 91 84 75 69 76 85 89 92 95 95 97 101 103 104 105 106 106 103 97 93 90 90 93 95 91 83 77 72 72 74 74 76 79 79 79 80 79 79 79 77 74 72 70 68 64 60 54 50 48 46 43 43 45 48 52 53 49 45 43 48 59 62 54 47 47 49 51 50 39 29 32 39 38 31 17 357 321 282
59 80 100 105 100 98 103 98 89 91 91 85 87 91 93 97 99 99 101 105 107 108 109 108 107 105 101 97 88 76 70 70 69 69 68 62 62 66 67 73 86 89 89 87 82 82 82 81 80 77 71 67 63 59 56 52 46 44 43 42 41 44 47 47 45 42 37 36 48 59 55 46 43 44 45 50 51 42 32 30 29 33 44 43 25 6
Height
1482 1482 1480 1479 1474 1471 1470 1468 1466 1460 1460 1464 1460 1458 1460 1459 1456 1453 1457 1461 1464 1470 1468 1466 1466 1464 1462 1458 1456 1456 1457 1462 1464 1465 1469 1471 1472 1472 1472 1474 1477 1480 1483 1486 1488 1488 1488 1489 1488 1489 1490 1490 1492 1493 1494 1496 1498 1499 1501 1502 1504 1506 1507 1508 1509 1509 1511 1514 1516 1520 1522 1523 1523 1524 1525 1527 1529 1530 1531 1533 1533 1534 1534 1534 1534 1534
1480 1480 1475 1471 1468 1465 1466 1466 1466 1465 1468 1471 1468 1464 1463 1462 1458 1453 1457 1462 1464 1470 1469 1464 1465 1463 1461 1459 1456 1455 1455 1460 1463 1463 1466 1469 1469 1470 1469 1470 1474 1478 1482 1487 1489 1488 1487 1487 1487 1488 1489 1490 1492 1493 1494 1496 1497 1499 1501 1502 1503 1504 1506 1507 1507 1508 1510 1513 1516 1518 1520 1522 1523 1523 1525 1527 1529 1530 1532 1533 1533 1533 1534 1534 1534 1534
1480 1477 1470 1465 1464 1464 1465 1466 1468 1470 1474 1474 1470 1469 1466 1461 1457 1454 1456 1462 1464 1469 1468 1463 1463 1461 1458 1457 1457 1455 1453 1456 1460 1461 1463 1466 1466 1466 1466 1467 1470 1475 1480 1486 1490 1488 1486 1486 1486 1488 1489 1490 1492 1493 1494 1495 1497 1499 1501 1502 1502 1503 1505 1506 1508 1509 1511 1514 1516 1518 1520 1522 1523 1523 1525 1527 1529 1531 1532 1533 1534 1533 1534 1534 1534 1535
1477 1470 1464 1462 1462 1465 1469 1470 1472 1474 1476 1475 1471 1471 1468 1460 1458 1458 1459 1462 1464 1467 1467 1464 1463 1461 1458 1457 1455 1454 1452 1452 1457 1459 1459 1462 1464 1464 1465 1464 1467 1473 1477 1483 1487 1486 1485 1485 1485 1487 1488 1490 1492 1493 1494 1495 1496 1498 1500 1501 1502 1503 1505 1507 1509 1510 1512 1515 1517 1518 1520 1521 1522 1523 1525 1527 1530 1531 1532 1533 1534 1533 1534 1534 1535 1535
1467 1458 1457 1459 1461 1467 1472 1473 1475 1476 1475 1473 1471 1469 1465 1459 1456 1456 1459 1462 1464 1466 1465 1466 1469 1463 1458 1459 1455 1451 1451 1451 1453 1456 1457 1458 1460 1463 1464 1463 1464 1470 1475 1478 1481 1483 1484 1484 1484 1487 1489 1490 1492 1493 1493 1494 1496 1498 1500 1501 1502 1503 1506 1508 1510 1512 1513 1515 1516 1518 1519 1520 1522 1524 1525 1527 1529 1531 1532 1533 1533 1533 1533 1534 1535 1535
1461 1455 1457 1461 1463 1468 1472 1472 1473 1475 1474 1470 1468 1466 1464 1461 1456 1456 1460 1463 1468 1469 1459 1461 1475 1468 1452 1451 1451 1447 1447 1449 1451 1453 1455 1457 1458 1460 1461 1461 1462 1465 1470 1474 1476 1479 1482 1484 1485 1487 1489 1491 1491 1492 1492 1493 1495 1497 1499 1500 1502 1504 1506 1508 1511 1512 1513 1514 1516 1517 1518 1520 1522 1524 1525 1527 1528 1530 1532 1532 1532 1533 1533 1534 1535 1535
1458 1455 1460 1464 1465 1468 1470 1469 1468 1470 1473 1470 1462 1460 1461 1462 1461 1462 1464 1466 1472 1470 1455 1455 1473 1471 1452 1446 1445 1444 1444 1446 1451 1452 1452 1455 1456 1457 1458 1459 1460 1462 1466 1470 1472 1476 1481 1485 1487 1486 1487 1488 1488 1487 1488 1490 1493 1496 1499 1500 1501 1504 1506 1509 1511 1512 1513 1515 1516 1517 1518 1520 1522 1523 1525 1526 1528 1530 1532 1532 1532 1533 1533 1534 1535 1536
1456 1457 1462 1465 1466 1468 1468 1467 1465 1465 1472 1468 1457 1457 1461 1462 1465 1465 1465 1466 1466 1462 1457 1455 1464 1470 1461 1448 1442 1444 1446 1448 1449 1450 1451 1452 1454 1455 1456 1456 1458 1460 1463 1466 1470 1475 1481 1486 1486 1482 1481 1481 1481 1483 1485 1488 1492 1495 1497 1499 1501 1504 1507 1509 1511 1513 1514 1515 1516 1518 1519 1521 1523 1524 1526 1527 1528 1530 1531 1531 1532 1532 1533 1534 1535 1536
1456 1460 1463 1464 1467 1466 1463 1462 1460 1463 1468 1462 1456 1460 1463 1462 1463 1461 1462 1463 1460 1462 1465 1455 1455 1468 1466 1448 1440 1443 1447 1449 1448 1449 1452 1453 1455 1456 1456 1456 1456 1458 1460 1465 1470 1475 1479 1482 1480 1477 1476 1477 1479 1482 1484 1487 1492 1495 1496 1499 1502 1504 1505 1507 1509 1512 1514 1516 1517 1519 1520 1522 1524 1525 1527 1528 1529 1530 1531 1531 1532 1532 1533 1534 1534 1536
1454 1457 1458 1462 1464 1462 1459 1458 1457 1461 1464 1458 1457 1462 1463 1463 1462 1461 1462 1460 1459 1467 1470 1457 1452 1466 1465 1447 1442 1446 1447 1449 1450 1452 1454 1455 1458 1460 1460 1460 1458 1458 1460 1465 1470 1474 1477 1477 1475 1475 1476 1479 1481 1482 1484 1487 1490 1492 1495 1499 1503 1503 1503 1504 1507 1510 1513 1516 1519 1521 1522 1523 1525 1526 1527 1528 1529 1530 1531 1531 1532 1532 1533 1533 1534 1535
1452 1455 1458 1459 1461 1459 1457 1457 1457 1460 1462 1459 1461 1463 1463 1463 1460 1461 1460 1458 1466 1472 1466 1456 1451 1459 1463 1452 1450 1454 1453 1452 1453 1455 1457 1457 1460 1461 1462 1463 1462 1460 1461 1465 1470 1473 1475 1475 1474 1476 1477 1479 1480 1482 1484 1485 1486 1491 1496 1500 1503 1503 1502 1502 1503 1506 1510 1515 1518 1520 1522 1524 1525 1526 1527 1528 1528 1529 1530 1531 1532 1533 1533 1534 1534 1535
1451 1456 1459 1459 1459 1458 1457 1457 1456 1458 1459 1461 1463 1464 1465 1464 1462 1465 1463 1464 1478 1476 1459 1450 1445 1452 1462 1459 1458 1459 1455 1455 1456 1457 1459 1459 1460 1460 1462 1463 1462 1461 1462 1466 1470 1472 1473 1474 1474 1476 1477 1478 1480 1481 1483 1484 1486 1492 1496 1498 1500 1501 1499 1498 1500 1502 1505 1511 1515 1517 1520 1523 1524 1526 1527 1528 1529 1530 1532 1533 1533 1534 1534 1534 1534 1535
1451 1452 1455 1457 1458 1457 1458 1458 1456 1457 1459 1461 1462 1464 1469 1470 1472 1478 1475 1472 1477 1470 1453 1444 1443 1451 1456 1456 1462 1460 1455 1456 1457 1457 1460 1460 1460 1461 1463 1463 1462 1462 1464 1467 1469 1470 1471 1473 1474 1475 1476 1477 1480 1480 1482 1485 1489 1492 1493 1495 1497 1497 1496 1496 1498 1499 1500 1505 1510 1514 1519 1521 1523 1525 1527 1529 1530 1532 1534 1534 1534 1535 1535 1535 1535 1536
1456 1452 1450 1453 1455 1455 1456 1456 1457 1458 1459 1460 1460 1463 1469 1473 1483 1490 1481 1472 1470 1461 1448 1441 1447 1457 1455 1454 1460 1460 1457 1458 1458 1459 1462 1462 1463 1464 1464 1465 1464 1464 1466 1468 1468 1470 1471 1472 1474 1475 1475 1477 1479 1479 1482 1487 1490 1491 1492 1494 1495 1495 1495 1495 1496 1497 1499 1503 1507 1512 1516 1519 1522 1524 1526 1530 1532 1534 1535 1535 1535 1535 1535 1535 1535 1536
1460 1459 1450 1449 1451 1452 1453 1451 1450 1450 1453 1455 1452 1455 1460 1462 1474 1483 1477 1470 1468 1461 1451 1448 1455 1459 1457 1459 1458 1457 1459 1459 1459 1462 1463 1464 1466 1465 1466 1466 1466 1466 1468 1469 1470 1470 1471 1472 1473 1475 1475 1477 1478 1479 1483 1486 1487 1489 1491 1493 1494 1494 1494 1494 1494 1496 1499 1501 1505 1509 1513 1516 1520 1522 1525 1530 1533 1535 1535 1535 1535 1536 1536 1536 1536 1537
1456 1454 1444 1443 1445 1446 1450 1448 1443 1445 1450 1450 1447 1452 1456 1452 1456 1465 1466 1463 1467 1470 1462 1453 1453 1451 1456 1461 1458 1459 1461 1460 1462 1464 1463 1466 1466 1466 1468 1467 1466 1468 1469 1471 1471 1470 1471 1472 1473 1474 1475 1476 1478 1480 1482 1483 1485 1486 1488 1491 1493 1494 1494 1494 1494 1495 1497 1500 1503 1507 1510 1514 1518 1521 1524 1529 1532 1534 1535 1535 1535 1536 1536 1536 1537 1538
1456 1451 1439 1441 1444 1440 1445 1446 1443 1448 1449 1446 1448 1451 1448 1443 1446 1458 1464 1458 1465 1479 1468 1451 1450 1452 1458 1464 1460 1460 1463 1462 1464 1465 1465 1467 1467 1467 1469 1468 1469 1469 1470 1471 1471 1471 1472 1473 1473 1474 1475 1476 1477 1479 1481 1482 1484 1484 1485 1488 1491 1493 1493 1493 1493 1495 1498 1500 1503 1506 1508 1513 1517 1519 1523 1527 1530 1532 1533 1534 1535 1535 1536 1536 1537 1538
1451 1452 1439 1438 1444 1440 1441 1444 1442 1444 1445 1447 1450 1446 1441 1443 1445 1453 1465 1465 1469 1477 1464 1449 1449 1452 1459 1470 1468 1464 1467 1469 1468 1467 1468 1468 1468 1469 1469 1471 1472 1471 1471 1472 1471 1472 1473 1473 1474 1474 1475 1477 1478 1480 1481 1482 1483 1483 1484 1486 1489 1491 1492 1493 1494 1495 1498 1501 1504 1505 1507 1511 1515 1518 1522 1526 1529 1531 1532 1533 1534 1535 1535 1536 1537 1538
1446 1453 1444 1436 1441 1440 1438 1444 1444 1442 1442 1445 1445 1439 1442 1453 1454 1455 1466 1472 1473 1474 1466 1452 1445 1449 1459 1469 1471 1470 1472 1474 1472 1470 1471 1470 1469 1471 1471 1472 1474 1473 1473 1473 1473 1473 1473 1473 1475 1475 1476 1478 1478 1480 1482 1482 1484 1484 1485 1486 1488 1490 1491 1492 1493 1495 1498 1501 1504 1506 1507 1510 1513 1516 1520 1524 1527 1529 1530 1532 1534 1534 1535 1536 1537 1538
1444 1454 1450 1438 1436 1437 1439 1444 1447 1444 1441 1442 1443 1440 1442 1448 1452 1453 1456 1460 1463 1468 1469 1457 1448 1459 1468 1467 1468 1472 1473 1474 1474 1473 1472 1472 1472 1472 1472 1474 1475 1476 1476 1475 1475 1475 1475 1475 1476 1477 1478 1479 1479 1481 1482 1483 1484 1485 1486 1487 1487 1488 1489 1491 1493 1495 1497 1500 1503 1506 1508 1511 1513 1516 1519 1522 1525 1527 1529 1532 1533 1534 1534 1535 1536 1537
1443 1453 1454 1442 1435 1438 1443 1442 1441 1439 1439 1443 1446 1446 1446 1444 1443 1447 1450 1450 1454 1461 1465 1460 1461 1472 1474 1469 1470 1472 1472 1474 1474 1474 1473 1474 1475 1475 1475 1476 1477 1478 1478 1477 1477 1477 1477 1478 1478 1479 1480 1479 1480 1481 1483 1484 1485 1485 1486 1486 1487 1487 1488 1490 1492 1495 1497 1499 1502 1505 1508 1511 1513 1515 1518 1521 1523 1526 1529 1531 1532 1533 1534 1535 1536 1536
1443 1450 1453 1449 1443 1441 1439 1433 1432 1432 1432 1437 1442 1443 1444 1442 1444 1455 1460 1451 1449 1458 1463 1461 1472 1482 1473 1468 1471 1470 1473 1476 1473 1474 1476 1476 1478 1478 1478 1478 1479 1480 1479 1478 1479 1479 1480 1480 1480 1481 1481 1481 1481 1481 1482 1485 1485 1486 1486 1486 1486 1486 1487 1489 1490 1493 1496 1498 1502 1505 1508 1510 1511 1514 1517 1519 1522 1525 1528 1530 1531 1533 1533 1534 1535 1536
1442 1446 1449 1451 1446 1440 1433 1428 1429 1431 1429 1431 1433 1434 1435 1437 1444 1456 1461 1454 1449 1454 1454 1448 1463 1481 1474 1467 1470 1470 1474 1477 1475 1476 1478 1478 1480 1480 1480 1480 1481 1481 1481 1480 1481 1481 1481 1481 1481 1481 1482 1483 1482 1481 1482 1483 1483 1485 1486 1486 1486 1486 1487 1489 1490 1493 1495 1498 1501 1504 1506 1508 1510 1513 1516 1518 1521 1524 1527 1529 1531 1533 1533 1533 1534 1536
1443 1449 1450 1448 1444 1436 1432 1431 1430 1432 1434 1434 1432 1431 1432 1433 1436 1441 1450 1457 1455 1456 1460 1455 1461 1479 1479 1471 1472 1474 1476 1479 1480 1481 1481 1481 1483 1482 1483 1484 1482 1482 1482 1482 1484 1484 1483 1483 1482 1482 1482 1483 1483 1482 1482 1482 1482 1483 1485 1487 1488 1487 1488 1489 1490 1493 1495 1497 1500 1503 1504 1507 1509 1512 1515 1517 1520 1523 1526 1528 1530 1532 1533 1533 1534 1535
1446 1451 1451 1452 1452 1448 1446 1446 1441 1436 1436 1437 1434 1432 1431 1430 1433 1438 1446 1455 1456 1456 1466 1466 1464 1476 1479 1473 1474 1476 1477 1481 1483 1484 1485 1485 1485 1486 1486 1485 1484 1485 1486 1486 1486 1485 1485 1485 1483 1483 1483 1483 1483 1482 1482 1483 1482 1483 1484 1487 1488 1488 1488 1489 1491 1493 1495 1496 1499 1501 1502 1504 1508 1511 1514 1517 1519 1522 1525 1527 1529 1530 1531 1532 1534 1535
1448 1448 1448 1452 1456 1458 1462 1463 1455 1445 1439 1437 1434 1433 1436 1435 1437 1441 1445 1452 1457 1454 1456 1459 1463 1475 1480 1476 1477 1478 1479 1484 1486 1487 1488 1488 1488 1489 1488 1488 1488 1488 1489 1488 1488 1487 1486 1486 1485 1484 1484 1483 1484 1484 1484 1484 1483 1483 1485 1487 1488 1488 1488 1489 1491 1493 1495 1496 1498 1501 1502 1503 1507 1511 1514 1517 1520 1522 1525 1527 1528 1529 1530 1532 1534 1535
1450 1448 1449 1454 1455 1456 1459 1458 1453 1448 1446 1442 1435 1435 1442 1443 1442 1445 1446 1450 1454 1453 1456 1460 1464 1475 1481 1480 1481 1482 1483 1487 1488 1488 1490 1490 1491 1491 1489 1490 1490 1490 1490 1490 1489 1488 1487 1486 1485 1485 1484 1484 1485 1486 1486 1485 1484 1485 1487 1487 1487 1487 1488 1489 1491 1493 1494 1496 1499 1501 1503 1504 1508 1513 1516 1518 1520 1523 1525 1527 1528 1529 1531 1533 1534 1535
1456 1456 1453 1457 1459 1453 1450 1450 1449 1449 1452 1452 1444 1439 1445 1450 1452 1455 1454 1452 1453 1456 1466 1471 1471 1478 1486 1485 1486 1489 1489 1490 1491 1492 1492 1493 1493 1492 1492 1492 1492 1492 1492 1491 1491 1490 1489 1488 1487 1486 1485 1484 1485 1486 1487 1487 1487 1487 1488 1488 1487 1487 1488 1489 1491 1492 1494 1497 1499 1502 1504 1507 1511 1514 1517 1519 1521 1524 1526 1527 1528 1530 1532 1533 1534 1536
1459 1460 1454 1457 1462 1454 1447 1448 1451 1454 1457 1458 1454 1449 1450 1454 1456 1457 1456 1453 1453 1456 1464 1471 1474 1482 1489 1490 1492 1494 1493 1495 1496 1495 1495 1495 1494 1495 1494 1494 1495 1494 1494 1493 1493 1492 1490 1490 1489 1488 1487 1486 1486 1488 1488 1488 1488 1489 1489 1488 1487 1487 1488 1489 1490 1492 1495 1498 1501 1503 1507 1511 1514 1516 1518 1520 1522 1524 1526 1527 1529 1531 1533 1534 1535 1537
1457 1464 1464 1465 1467 1461 1454 1450 1453 1461 1462 1457 1455 1454 1453 1454 1456 1456 1456 1456 1456 1458 1463 1468 1476 1486 1492 1493 1495 1496 1496 1498 1498 1498 1498 1497 1496 1496 1496 1497 1497 1497 1496 1495 1495 1493 1493 1492 1490 1489 1489 1488 1488 1489 1490 1490 1489 1489 1489 1488 1488 1488 1488 1489 1491 1493 1495 1499 1502 1505 1508 1511 1514 1516 1519 1521 1523 1525 1526 1528 1530 1531 1533 1535 1536 1537
1460 1465 1466 1465 1464 1463 1461 1454 1454 1464 1466 1460 1460 1460 1456 1456 1459 1461 1463 1463 1463 1466 1470 1474 1482 1492 1496 1495 1496 1499 1499 1499 1500 1500 1500 1499 1499 1498 1498 1499 1499 1498 1498 1497 1496 1495 1494 1493 1492 1492 1491 1491 1491 1491 1492 1491 1490 1489 1489 1489 1489 1489 1489 1491 1493 1495 1497 1500 1502 1505 1508 1510 1513 1516 1518 1520 1523 1525 1527 1529 1530 1532 1534 1535 1536 1537
1462 1461 1459 1459 1460 1459 1459 1457 1455 1460 1464 1464 1470 1473 1468 1462 1464 1468 1473 1475 1473 1472 1473 1474 1479 1490 1497 1498 1498 1500 1501 1501 1502 1502 1502 1502 1502 1501 1501 1501 1501 1500 1499 1498 1497 1496 1496 1495 1495 1494 1493 1493 1493 1492 1493 1493 1492 1491 1490 1490 1491 1491 1491 1493 1495 1496 1498 1501 1503 1506 1508 1510 1514 1517 1519 1520 1522 1524 1526 1528 1530 1532 1534 1535 1536 1537
1462 1462 1459 1460 1463 1459 1456 1457 1458 1462 1468 1472 1479 1484 1479 1471 1468 1471 1478 1482 1480 1475 1473 1474 1479 1489 1497 1499 1500 1501 1503 1504 1504 1505 1505 1505 1504 1504 1503 1503 1502 1502 1501 1500 1499 1498 1497 1497 1497 1496 1496 1495 1495 1494 1494 1493 1493 1492 1492 1492 1492 1492 1493 1496 1498 1499 1500 1501 1504 1507 1509 1511 1514 1518 1519 1520 1522 1524 1525 1527 1529 1531 1533 1534 1536 1537
1464 1466 1464 1466 1470 1467 1463 1462 1463 1468 1476 1482 1486 1488 1485 1479 1476 1476 1482 1486 1484 1480 1479 1482 1487 1494 1498 1499 1502 1505 1506 1506 1507 1507 1507 1507 1507 1507 1506 1505 1504 1504 1503 1502 1501 1500 1499 1499 1499 1499 1498 1497 1497 1496 1495 1495 1495 1494 1494 1495 1494 1494 1496 1498 1499 1500 1501 1502 1504 1507 1509 1511 1515 1518 1519 1521 1523 1525 1526 1527 1528 1530 1532 1534 1536 1537
1466 1467 1468 1471 1473 1473 1473 1472 1471 1475 1482 1487 1489 1489 1487 1485 1483 1483 1487 1489 1487 1486 1487 1489 1494 1498 1500 1503 1506 1507 1508 1509 1509 1509 1509 1509 1509 1509 1507 1507 1506 1505 1504 1504 1503 1502 1502 1502 1502 1501 1500 1500 1499 1499 1498 1497 1497 1497 1497 1497 1498 1498 1498 1498 1499 1500 1502 1504 1506 1508 1510 1513 1515 1517 1519 1521 1523 1525 1527 1528 1529 1530 1532 1534 1536 1537
1464 1465 1470 1475 1476 1476 1476 1473 1476 1484 1489 1490 1490 1490 1490 1490 1487 1487 1491 1493 1493 1492 1491 1494 1498 1501 1504 1507 1509 1509 1510 1511 1510 1511 1512 1511 1511 1510 1510 1509 1509 1507 1507 1506 1505 1505 1504 1503 1503 1503 1503 1503 1502 1502 1501 1500 1500 1500 1499 1500 1500 1500 1501 1501 1501 1503 1505 1507 1508 1509 1512 1514 1516 1518 1520 1521 1523 1524 1526 1528 1529 1530 1532 1534 1536 1537
1463 1465 1471 1477 1476 1473 1474 1477 1485 1491 1491 1492 1496 1496 1496 1496 1495 1493 1493 1496 1499 1497 1495 1498 1501 1503 1506 1508 1509 1510 1510 1510 1511 1514 1515 1514 1513 1513 1512 1511 1511 1510 1509 1509 1508 1508 1507 1506 1505 1505 1506 1506 1505 1504 1503 1504 1504 1503 1502 1503 1503 1503 1503 1504 1505 1507 1509 1509 1510 1512 1514 1515 1517 1518 1520 1521 1523 1525 1527 1529 1530 1531 1533 1534 1536 1537
1464 1467 1473 1477 1472 1465 1469 1478 1484 1485 1488 1496 1500 1499 1499 1498 1497 1497 1495 1497 1501 1500 1499 1501 1502 1504 1506 1507 1509 1511 1509 1509 1514 1517 1518 1517 1516 1515 1515 1514 1514 1513 1512 1512 1511 1510 1510 1509 1507 1507 1508 1508 1507 1506 1506 1507 1507 1505 1505 1506 1506 1505 1506 1506 1507 1510 1511 1512 1513 1515 1516 1517 1518 1519 1520 1522 1523 1525 1527 1529 1530 1531 1533 1534 1535 1536
1463 1466 1470 1475 1470 1462 1463 1469 1473 1479 1493 1502 1501 1498 1499 1497 1497 1497 1494 1496 1502 1503 1502 1503 1504 1505 1507 1507 1509 1510 1508 1511 1517 1520 1520 1519 1518 1517 1517 1517 1516 1515 1515 1514 1513 1512 1512 1512 1511 1509 1509 1509 1509 1510 1509 1508 1507 1508 1508 1508 1508 1508 1508 1509 1511 1513 1513 1514 1516 1517 1518 1519 1520 1520 1522 1523 1524 1526 1528 1529 1530 1532 1533 1534 1535 1535
1465 1463 1465 1470 1468 1463 1467 1474 1480 1488 1499 1503 1500 1498 1497 1497 1497 1495 1491 1496 1503 1504 1503 1505 1506 1506 1508 1508 1510 1511 1510 1511 1517 1521 1521 1520 1520 1519 1519 1518 1518 1518 1517 1516 1516 1515 1515 1515 1514 1513 1511 1511 1512 1513 1513 1511 1510 1510 1511 1511 1511 1512 1512 1513 1514 1515 1516 1517 1518 1519 1520 1520 1521 1522 1523 1524 1526 1527 1529 1530 1531 1532 1533 1534 1535 1536
1467 1465 1463 1467 1466 1462 1468 1479 1488 1497 1503 1502 1501 1500 1497 1495 1495 1494 1495 1501 1505 1504 1504 1506 1507 1508 1510 1510 1511 1514 1514 1513 1517 1521 1522 1522 1522 1521 1521 1521 1520 1520 1520 1519 1518 1518 1518 1518 1517 1516 1516 1515 1515 1516 1516 1515 1514 1514 1514 1514 1514 1514 1515 1517 1517 1518 1519 1519 1520 1520 1521 1522 1523 1524 1525 1526 1528 1529 1530 1531 1532 1533 1534 1534 1535 1536
1477 1473 1464 1466 1469 1466 1467 1474 1484 1497 1506 1504 1500 1498 1496 1495 1496 1499 1503 1505 1505 1505 1506 1507 1508 1510 1511 1512 1513 1516 1518 1518 1520 1522 1523 1523 1523 1523 1523 1523 1522 1522 1522 1521 1521 1521 1520 1520 1519 1519 1519 1519 1519 1519 1518 1518 1518 1518 1517 1517 1516 1517 1518 1519 1519 1520 1521 1521 1522 1522 1523 1524 1525 1525 1526 1528 1530 1531 1532 1532 1533 1535 1535 1535 1535 1536
1488 1481 1470 1474 1478 1472 1470 1477 1486 1498 1507 1506 1501 1499 1499 1501 1505 1508 1508 1505 1505 1507 1508 1509 1511 1512 1512 1514 1516 1518 1520 1521 1522 1524 1525 1525 1525 1525 1525 1525 1524 1524 1524 1523 1523 1523 1522 1522 1521 1521 1521 1521 1521 1521 1521 1521 1521 1521 1520 1519 1519 1520 1520 1520 1521 1522 1522 1523 1523 1524 1525 1526 1527 1527 1528 1529 1530 1531 1532 1533 1534 1535 1536 1536 1536 1537
1489 1482 1476 1484 1487 1481 1485 1497 1505 1509 1512 1510 1507 1507 1508 1510 1510 1509 1508 1507 1508 1509 1510 1511 1514 1514 1514 1516 1518 1520 1522 1523 1524 1525 1526 1527 1526 1526 1527 1526 1526 1526 1526 1525 1525 1525 1524 1524 1523 1522 1523 1523 1524 1524 1523 1523 1523 1522 1522 1521 1521 1522 1522 1522 1522 1523 1523 1524 1525 1525 1526 1527 1528 1529 1530 1530 1531 1532 1532 1533 1534 1535 1536 1537 1538 1538
1492 1487 1485 1493 1497 1497 1503 1512 1515 1515 1514 1512 1512 1512 1513 1512 1511 1509 1509 1510 1510 1511 1512 1514 1516 1517 1518 1519 1520 1522 1524 1524 1526 1527 1528 1528 1528 1528 1528 1528 1528 1528 1528 1527 1527 1527 1526 1526 1526 1525 1525 1525 1526 1526 1525 1525 1525 1524 1523 1523 1523 1523 1523 1523 1523 1524 1524 1525 1526 1526 1527 1528 1528 1530 1530 1531 1532 1532 1533 1533 1534 1535 1536 1537 1537 1538
1493 1490 1490 1496 1501 1504 1511 1515 1515 1514 1515 1514 1515 1515 1514 1513 1512 1511 1511 1512 1513 1514 1515 1516 1518 1520 1521 1522 1523 1525 1526 1527 1529 1529 1529 1529 1529 1529 1529 1530 1530 1530 1530 1530 1530 1529 1529 1528 1528 1528 1527 1528 1528 1528 1528 1528 1527 1526 1525 1525 1524 1524 1524 1524 1524 1524 1525 1526 1526 1527 1528 1528 1529 1530 1530 1531 1531 1532 1533 1533 1534 1534 1535 1536 1537 1538
1492 1491 1492 1496 1499 1505 1514 1517 1516 1514 1515 1516 1516 1516 1515 1515 1515 1514 1514 1515 1516 1517 1518 1520 1521 1523 1524 1526 1526 1527 1529 1530 1531 1531 1531 1531 1531 1531 1531 1531 1531 1532 1532 1532 1532 1531 1531 1531 1530 1530 1530 1530 1530 1530 1529 1530 1529 1529 1528 1527 1526 1526 1525 1525 1525 1525 1526 1526 1527 1528 1528 1529 1529 1529 1530 1530 1531 1531 1532 1533 1533 1533 1534 1534 1535 1536
1491 1492 1495 1499 1504 1510 1516 1518 1516 1516 1517 1517 1517 1518 1518 1517 1517 1517 1517 1518 1519 1519 1520 1523 1524 1526 1528 1529 1530 1530 1532 1533 1533 1533 1534 1534 1534 1534 1534 1534 1534 1534 1533 1534 1534 1533 1533 1533 1532 1532 1532 1532 1532 1532 1531 1531 1531 1530 1529 1529 1528 1528 1527 1526 1526 1526 1527 1527 1528 1528 1529 1529 1529 1530 1530 1530 1531 1531 1532 1532 1532 1533 1533 1533 1534 1534
1490 1492 1497 1502 1508 1513 1516 1516 1515 1516 1518 1520 1520 1521 1520 1520 1520 1520 1520 1521 1522 1522 1523 1524 1527 1529 1530 1531 1532 1533 1534 1534 1535 1536 1536 1536 1536 1536 1536 1536 1536 1535 1535 1535 1535 1535 1535 1535 1534 1534 1534 1534 1534 1534 1533 1533 1532 1532 1531 1530 1530 1529 1528 1527 1527 1527 1527 1528 1528 1529 1529 1529 1530 1530 1531 1531 1531 1531 1532 1532 1532 1532 1533 1533 1533 1534
1492 1496 1499 1502 1508 1514 1515 1515 1514 1516 1519 1522 1524 1524 1524 1523 1523 1522 1523 1524 1525 1526 1526 1527 1529 1531 1532 1533 1534 1534 1535 1536 1537 1538 1538 1538 1538 1538 1538 1538 1537 1537 1537 1537 1536 1536 1536 1536 1536 1536 1535 1535 1535 1535 1535 1534 1534 1533 1533 1532 1531 1530 1529 1529 1529 1529 1529 1529 1529 1529 1530 1530 1531 1531 1532 1532 1533 1532 1532 1532 1533 1533 1533 1533 1533 1533
1498 1499 1498 1500 1507 1513 1515 1515 1517 1518 1521 1524 1526 1526 1527 1527 1526 1526 1526 1527 1528 1529 1530 1530 1531 1533 1534 1535 1536 1536 1537 1538 1538 1539 1539 1539 1539 1539 1539 1539 1539 1538 1538 1538 1538 1538 1538 1537 1537 1537 1537 1537 1536 1536 1536 1535 1535 1535 1534 1534 1533 1532 1531 1531 1531 1531 1530 1530 1530 1530 1531 1532 1532 1533 1533 1534 1534 1534 1534 1534 1534 1534 1534 1534 1533 1533